Weather in Russkiye Shoi

Russia / Mari El Republic     56°40′08″N   49°08′16″E
temp.,
°C
wind,
m/s
gust,
m/s
humid.,
%
clouds,
%
prec.,
mm/h
press.,
hPa
HPBL,
m
6 august, fri
fri600:00+13nnw33660 0.0 101727
03:00+11nnw33686 0.0 101830
06:00+14n2366100 0.0 1018101
09:00+20nne23485 0.0 1018686
12:00+22n22370 0.0 10181923
15:00+23nnw3336100 0.0 10171953
18:00+21nnw235171 0.0 101764
21:00+16ene3460100 0.0 101848
7 august, sat
sat700:00+16e2357100 0.0 101865
03:00+16e1156100 0.0 101811
06:00+13nne2288100 1.2 102049
09:00+14ene1290100 1.9 102094
12:00+14e2391100 1.8 1020162
15:00+15e2485100 1.9 1020151
18:00+14e2280100 0.0 102037
21:00+14e2277100 0.1 102039
8 august, sun
sun800:00+15e2375100 0.0 102147
03:00+13ese347981 0.0 102152
06:00+15se367543 0.0 1022175
09:00+21ese445168 0.0 1022611
12:00+25ese3345100 0.0 10211044
15:00+26se3343100 0.0 10211180
18:00+23ese3460100 0.0 102180
21:00+18ese356996 0.0 102186
9 august, mon
mon900:00+16se3772100 0.0 1022105
03:00+16se3864100 0.0 1022149
06:00+17sse3862100 0.0 1021198
09:00+22sse575145 0.0 1021339
12:00+28ssw453822 0.0 10201089
15:00+27s36465 0.0 1019377
18:00+27s125459 0.0 101813
21:00+21ssw22665 0.0 101811
10 august, tue
tue1000:00+20wnw35705 0.0 101871
03:00+18nw34800 0.0 101859
06:00+20nnw3575100 0.0 1019152
09:00+24nnw345319 0.0 1019658
12:00+27nnw45448 0.0 10181523
15:00+27nnw4542100 0.0 10181655
18:00+24nnw3556100 0.0 1018121
21:00+19ne367363 0.0 101893